Flag for Portugal Weather past 2 weeks in Funchal, Madeira, Portugal

66 °F

Broken clouds.

Feels Like: 66 °F
Forecast: N/A
Wind: 14 mph from Northeast

Location: Aeroporto Da Madeira

Current Time: Nov 29, 2015 at 4:08:06 PM

Latest Report: Nov 29, 2015 at 3:30 PM

Visibility: N/A

Pressure: 30.30 "Hg

Humidity: 68%

Dew point: 55 °F

Location of FunchalLocation

Historic Weather in Funchal — Graph


Funchal temperature yesterday

Maximum temperature yesterday: 66 °F (at 1:30 AM)
Minimum temperature yesterday: 64 °F (at 6:00 AM)
Average temperature yesterday: 66 °F

Past Weeks' High & Low Weather Summary

High72 °F (Nov 14, 3:00 PM)88% (Nov 15, 2:30 AM)30.51 "Hg (Nov 15, 2:30 AM)
Low61 °F (Nov 22, 12:00 PM)43% (Nov 26, 6:00 PM)30.12 "Hg (Nov 27, 3:30 PM)
Average66 °F68%30.32 "Hg
* Reported Nov 14 3:00 PM — Nov 29 3:00 PM, Funchal, Weather by CustomWeather, © 2015

Note: Actual official high and low records may vary slightly from our data, if they occured in-between our weather recording intervals... More about our weather records


Funchal weather history for previous 24 hours

Time TempWeatherWind HumidityBarometerVisibility
3:00 PM
Sun, Nov 29
66 °FBroken clouds.14 mph68%30.30 "HgN/A
2:30 PM66 °FBroken clouds.9 mph68%30.33 "HgN/A
2:00 PM66 °FBroken clouds.10 mph68%30.33 "HgN/A
1:30 PM66 °FBroken clouds.10 mph64%30.33 "HgN/A
1:00 PM68 °FBroken clouds.15 mph60%30.33 "HgN/A
12:30 PM68 °FBroken clouds.15 mph60%30.36 "HgN/A
12:00 PM66 °FBroken clouds.13 mph64%30.36 "HgN/A
11:30 AM66 °FBroken clouds.13 mph60%30.36 "HgN/A
11:00 AM66 °FBroken clouds.13 mph60%30.36 "HgN/A
10:30 AM66 °FBroken clouds.12 mph60%30.36 "HgN/A
9:30 AM66 °FBroken clouds.14 mph60%30.33 "HgN/A
9:00 AM64 °FBroken clouds.13 mph68%30.33 "HgN/A
8:30 AM66 °FPartly cloudy.15 mph64%30.33 "HgN/A
8:00 AM66 °FPartly cloudy.17 mph64%30.33 "HgN/A
6:30 AM64 °FPartly cloudy.14 mph68%30.30 "HgN/A
6:00 AM66 °FPartly cloudy.16 mph68%30.30 "HgN/A
5:00 AM66 °FPartly cloudy.16 mph60%30.30 "HgN/A
4:30 AM66 °FPartly cloudy.16 mph60%30.30 "HgN/A
4:00 AM66 °FPassing clouds.13 mph64%30.30 "HgN/A
3:30 AM66 °FPassing clouds.16 mph64%30.30 "HgN/A
3:00 AM66 °FPassing clouds.15 mph68%30.30 "HgN/A
2:30 AM66 °FPassing clouds.17 mph68%30.30 "HgN/A
2:00 AM66 °FPassing clouds.13 mph64%30.30 "HgN/A
1:30 AM66 °FPartly cloudy.13 mph64%30.30 "HgN/A
1:00 AM66 °FPartly cloudy.14 mph60%30.30 "HgN/A
12:30 AM66 °FPartly cloudy.15 mph68%30.30 "HgN/A
12:00 AM66 °FPartly cloudy.16 mph64%30.30 "HgN/A
11:30 PM
Sat, Nov 28
64 °FPartly cloudy.13 mph73%30.30 "HgN/A
11:00 PM66 °FPartly cloudy.14 mph60%30.30 "HgN/A
10:00 PM66 °FPartly cloudy.13 mph64%30.30 "HgN/A
9:30 PM64 °FPartly cloudy.17 mph73%30.30 "HgN/A
8:30 PM66 °FPartly cloudy.16 mph60%30.27 "HgN/A
8:00 PM66 °FPartly cloudy.16 mph60%30.27 "HgN/A
7:30 PM66 °FPartly cloudy.14 mph64%30.27 "HgN/A
7:00 PM66 °FBroken clouds.17 mph56%30.24 "HgN/A
6:30 PM66 °FBroken clouds.15 mph64%30.24 "HgN/A
6:00 PM66 °FBroken clouds.15 mph64%30.24 "HgN/A
5:30 PM66 °FPartly sunny.16 mph64%30.24 "HgN/A
5:00 PM66 °FPartly sunny.13 mph73%30.24 "HgN/A
4:30 PM64 °FPartly sunny.16 mph73%30.24 "HgN/A
4:00 PM66 °FBroken clouds.20 mph73%30.24 "HgN/A
Weather by CustomWeather, © 2015

See weather overviewHow to use our weather pages